Tracking 18945 objects as of 19-Jan-2018
HD Live streaming from Space Station
objects crossing your sky now

HETE 2

Track HETE 2 now!
10-day predictions
HETE 2 is classified as:


NORAD ID: 26561
Int'l Code: 2000-061A
Perigee: 538.2 km
Apogee: 563.6 km
Inclination: 1.9 °
Period: 95.5 minutes
Semi major axis: 6921 km
RCS: 0.631 m2 (medium)
Launch date: October 9, 2000
Source: United States (US)
Launch site: Kwajalein (KWAJ)

Designed to detect and localize gamma-ray bursts.
aabbcc
Your satellite tracking list
Your tracking list is empty




NASA's NSSDC Master Catalog

Two Line Element Set (TLE):
1 26561U 00061A   18018.48374874 +.00001280 +00000-0 +24599-4 0  9994
2 26561 001.9481 233.3716 0018356 320.3999 039.4703 15.07525875947414
Source of the keplerian elements: AFSPC